STARLINK-34274

Last updated on Thu Jul 03 2025 00:02:06 GMT+0000 (Coordinated Universal Time)

1 64348U 25126E 25183.58335648 -.01409223 00000+0 -17034-1 0 9990 2 64348 69.9995 310.2307 0003346 266.7492 303.8948 15.63224508 4322
UTC large
Height (km)
Speed (km/s)
/
Latitude / Longitude
Inclination (degrees)
Orbital Period (minutes)
Azimuth
Elevation
Range (km)
Doppler Factor

Next 0 passes for location: London (51.5072 / 0.1276)

Sorry there are no passes over London.